Weather History for KUIN - August, 2012

Change the Weather History Date:

Sunday, August 12, 2012

  Actual Average Record
Temperature  
Mean Temperature 70 °F 75 °F  
Max Temperature 78 °F 85 °F 105 °F (1936)
Min Temperature 62 °F 65 °F 48 °F (1979)
Degree Days  
Heating Degree Days 0 0  
Month to date heating degree days 0  
Since 1 June heating degree days 16  
Since 1 July heating degree days 0  
Cooling Degree Days 5 10  
Month to date cooling degree days 125  
Year to date cooling degree days 781  
Since 1 June cooling degree days 695  
Growing Degree Days 20 (Base 50)    
Moisture  
Dew Point 56 °F    
Average Humidity 64    
Maximum Humidity 88    
Minimum Humidity 50    
Precipitation  
Precipitation 0.09 in 0.12 in 1.98 in (1939)
Month to date precipitation 1.43  
Year to date precipitation 23.55  
Sea Level Pressure  
Sea Level Pressure 29.94 in    
Wind  
Wind Speed 7 mph (SE)    
Max Wind Speed 20 mph    
Max Gust Speed 29 mph    
Visibility 10 miles    
Events Rain , Thunderstorm    
T = Trace of Precipitation, MM = Missing Value Source: NWS Daily Summary

Daily Weather History Graph

Daily Weather History Graph

Search for Another Location

Airport or City:

Trip Planner

Search our weather history database for the weather conditions in past years. The results will help you decide how hot, cold, wet, or windy it might be!

Date:

Astronomy

Aug. 12, 2012 Rise Set
Actual Time 6:14 AM CDT 8:04 PM CDT
Civil Twilight 5:44 AM CDT 8:33 PM CDT
Nautical Twilight 5:09 AM CDT 9:09 PM CDT
Astronomical Twilight 4:31 AM CDT 9:47 PM CDT
Moon 1:27 AM CDT (8/12) 4:29 PM CDT (8/12)
Length of Visible Light 14h 48m
Length of Day
13h 50m
Waning Crescent, 24% of the Moon is Illuminated
Aug 12
Waning Crescent
Aug 17
New
Aug 24
First Quarter
Aug 31
Full
Sep 8
Last Quarter

Hourly Weather History & Observations

Time (CDT) Temp. Dew Point Humidity Pressure Visibility Wind Dir Wind Speed Gust Speed Precip Events Conditions
12:54 AM 66.0 °F 48.9 °F 54% 30.01 in 10.0 mi ESE 6.9 mph - N/A   Clear
1:54 AM 64.9 °F 48.9 °F 56% 30.00 in 10.0 mi ESE 4.6 mph - N/A   Clear
2:54 AM 63.0 °F 48.9 °F 60% 29.99 in 10.0 mi ESE 5.8 mph - N/A   Clear
3:54 AM 62.1 °F 48.9 °F 62% 29.99 in 10.0 mi ESE 5.8 mph - N/A   Clear
4:54 AM 62.1 °F 48.0 °F 60% 29.99 in 10.0 mi ESE 4.6 mph - N/A   Clear
5:54 AM 64.0 °F 46.0 °F 52% 29.99 in 10.0 mi SSE 6.9 mph - N/A   Clear
6:54 AM 63.0 °F 51.1 °F 65% 29.98 in 10.0 mi SSE 8.1 mph - 0.00 in Rain Light Rain
7:54 AM 64.9 °F 52.0 °F 63% 29.99 in 10.0 mi SSE 4.6 mph - N/A   Overcast
8:54 AM 69.1 °F 51.1 °F 53% 29.99 in 10.0 mi South 5.8 mph - N/A   Overcast
9:54 AM 70.0 °F 52.0 °F 53% 29.99 in 10.0 mi South 4.6 mph - N/A   Overcast
10:54 AM 70.0 °F 55.0 °F 59% 30.00 in 10.0 mi Calm Calm - 0.00 in   Overcast
11:54 AM 70.0 °F 55.0 °F 59% 29.99 in 10.0 mi SSE 3.5 mph - N/A   Overcast
12:54 PM 69.1 °F 57.9 °F 68% 29.99 in 10.0 mi South 3.5 mph - 0.01 in Rain Light Rain
1:54 PM 68.0 °F 60.1 °F 76% 29.99 in 10.0 mi SW 6.9 mph - 0.01 in Rain Light Rain
2:54 PM 72.0 °F 61.0 °F 68% 29.96 in 10.0 mi SE 5.8 mph - 0.00 in   Scattered Clouds
3:54 PM 75.9 °F 59.0 °F 56% 29.92 in 10.0 mi East 6.9 mph - N/A   Scattered Clouds
4:54 PM 78.1 °F 57.9 °F 50% 29.91 in 10.0 mi SSE 9.2 mph - N/A   Overcast
5:54 PM 75.9 °F 60.1 °F 58% 29.89 in 10.0 mi SSE 10.4 mph - N/A   Overcast
6:54 PM 75.9 °F 61.0 °F 60% 29.88 in 10.0 mi SE 11.5 mph - N/A   Partly Cloudy
7:54 PM 73.9 °F 61.0 °F 64% 29.86 in 10.0 mi ESE 10.4 mph - N/A   Mostly Cloudy
8:54 PM 73.0 °F 61.0 °F 66% 29.84 in 10.0 mi ESE 11.5 mph - N/A   Overcast
9:25 PM 73.4 °F 60.8 °F 65% 29.85 in 10.0 mi SE 12.7 mph - 0.00 in Rain , Thunderstorm Light Rain
9:54 PM 72.0 °F 61.0 °F 68% 29.89 in 10.0 mi North 19.6 mph 26.5 mph 0.01 in Rain , Thunderstorm Light Thunderstorms and Rain
10:04 PM 71.6 °F 60.8 °F 69% 29.86 in 9.0 mi SE 17.3 mph 28.8 mph 0.02 in Rain , Thunderstorm Light Thunderstorms and Rain
10:24 PM 71.6 °F 60.8 °F 69% 29.90 in 10.0 mi East 5.8 mph 19.6 mph 0.02 in Rain , Thunderstorm Light Rain
10:54 PM 66.9 °F 63.0 °F 87% 29.89 in 7.0 mi ENE 10.4 mph - 0.06 in Rain , Thunderstorm Light Thunderstorms and Rain
11:17 PM 66.2 °F 62.6 °F 88% 29.90 in 10.0 mi ENE 10.4 mph - 0.00 in   Overcast
11:54 PM 66.0 °F 62.1 °F 87% 29.88 in 10.0 mi East 10.4 mph - 0.00 in   Mostly Cloudy